FW3102 Weather Reports


Display with metric or nautical units.
time (UTC)temp
F
wind
direction
speed
MPH
gust
MPH
rain 1hr
in
rain 24hr
in
rain mn
in
humidity
%
barometer
mb
20260505124528 27 103 0.0 0.0 0.00 0.00 0.00 83 1021.2
20260505123027 27 103 0.0 0.0 0.00 0.00 0.00 82 1021.0
20260505121526 28 103 0.0 0.0 0.00 0.00 0.00 82 1020.9
20260505120024 28 41 0.0 1.0 0.00 0.00 0.00 82 1020.9
20260505114523 28 37 0.0 1.0 0.00 0.00 0.00 81 1020.8
20260505113023 28 39 0.0 1.0 0.00 0.00 0.00 82 1020.7
20260505111521 28 38 0.0 0.0 0.00 0.00 0.00 82 1020.7
20260505101518 27 38 0.0 0.0 0.00 0.00 0.00 81 1020.4
20260505100014 28 38 0.0 0.0 0.00 0.00 0.00 81 1020.2
20260505094509 28 38 0.0 0.0 0.00 0.00 0.00 80 1020.2
20260505093015 28 38 0.0 0.0 0.00 0.00 0.00 80 1020.1
20260505091506 29 38 0.0 0.0 0.00 0.00 0.00 78 1020.0
20260505090004 29 38 0.0 0.0 0.00 0.00 0.00 78 1020.0
20260505084500 29 38 0.0 0.0 0.00 0.00 0.00 75 1019.8
20260505083102 30 38 0.0 0.0 0.00 0.00 0.00 74 1019.8
20260505081558 31 38 0.0 0.0 0.00 0.00 0.00 72 1019.5
20260505080054 32 38 0.0 0.0 0.00 0.00 0.00 71 1019.4
20260505074549 34 38 0.0 0.0 0.00 0.00 0.00 69 1019.4
20260505073044 35 38 0.0 1.0 0.00 0.00 0.00 68 1019.3
20260505071542 35 65 0.0 1.0 0.00 0.00 0.00 67 1019.1
20260505070044 36 70 0.0 2.0 0.00 0.00 0.00 65 1019.0
20260505064537 37 74 0.0 3.0 0.00 0.00 0.00 65 1019.1
20260505063039 37 46 0.0 4.0 0.00 0.00 0.00 63 1019.0
20260505061534 38 29 2.0 6.0 0.00 0.00 0.00 62 1018.9
20260505060032 39 29 1.0 3.0 0.00 0.00 0.00 60 1018.9
20260505054536 39 331 2.0 6.0 0.00 0.00 0.00 58 1018.8
20260505053023 40 38 1.0 6.0 0.00 0.00 0.00 56 1018.8
20260505051523 40 26 1.0 5.0 0.00 0.00 0.00 54 1018.4
20260505041517 43 339 2.0 6.0 0.00 0.00 0.00 53 1017.9
20260505040017 43 37 1.0 5.0 0.00 0.00 0.00 53 1017.6
20260505034514 44 62 1.0 3.0 0.00 0.00 0.00 52 1017.4
20260505033018 45 16 3.0 7.0 0.00 0.00 0.00 50 1017.0
20260505031511 46 57 2.0 6.0 0.00 0.00 0.00 46 1016.8
20260505030010 47 24 2.0 6.0 0.00 0.00 0.00 43 1016.4
20260505024508 48 302 3.0 7.0 0.00 0.00 0.00 42 1016.3
20260505023010 48 30 2.0 7.0 0.00 0.00 0.00 41 1016.3
20260505021507 49 16 3.0 7.0 0.00 0.00 0.00 41 1016.1
20260505020006 50 330 4.0 10.0 0.00 0.00 0.00 38 1015.9
20260505014509 51 329 2.0 11.0 0.00 0.00 0.00 38 1015.8
20260505013004 51 56 4.0 13.0 0.00 0.00 0.00 38 1015.8
20260505011504 52 359 4.0 15.0 0.00 0.00 0.00 37 1015.5
20260505010003 53 314 4.0 11.0 0.00 0.00 0.00 36 1015.5
20260505004511 53 70 4.0 12.0 0.00 0.00 0.00 36 1015.6
20260505003000 54 80 4.0 8.0 0.00 0.00 0.00 36 1015.4
20260505001600 53 302 4.0 9.0 0.00 0.00 0.00 34 1015.2
20260505000104 55 323 3.0 10.0 0.00 0.00 0.00 33 1015.1
20260504234624 55 27 3.0 9.0 0.00 0.00 0.00 33 1015.1
20260504233058 54 26 4.0 11.0 0.00 0.00 0.00 34 1015.2
20260504231604 54 61 5.0 11.0 0.00 0.00 0.00 33 1015.1
20260504230054 54 271 4.0 13.0 0.00 0.00 0.00 33 1015.1
20260504224603 55 312 5.0 15.0 0.00 0.00 0.00 32 1015.0
20260504223050 55 124 3.0 12.0 0.00 0.00 0.00 34 1015.0
20260504221559 55 34 6.0 12.0 0.00 0.00 0.00 35 1014.9
20260504220048 55 39 5.0 12.0 0.00 0.00 0.00 33 1015.0
20260504214549 54 39 3.0 10.0 0.00 0.00 0.00 35 1015.0
20260504213043 53 34 4.0 13.0 0.00 0.00 0.00 35 1015.2
20260504211539 54 39 4.0 9.0 0.00 0.00 0.00 33 1015.2
20260504210040 53 27 6.0 12.0 0.00 0.00 0.00 34 1015.2
20260504204613 54 69 4.0 12.0 0.00 0.00 0.00 34 1015.4
20260504203034 53 294 5.0 16.0 0.00 0.00 0.00 36 1015.1
20260504201531 53 61 3.0 12.0 0.00 0.00 0.00 37 1015.5
20260504200035 52 54 3.0 10.0 0.00 0.00 0.00 39 1015.5
20260504194528 51 41 4.0 15.0 0.00 0.00 0.00 40 1015.6
20260504193025 50 338 4.0 11.0 0.00 0.00 0.00 42 1015.6
20260504191521 50 34 3.0 15.0 0.00 0.00 0.00 42 1015.6
20260504190020 49 295 5.0 16.0 0.00 0.00 0.00 45 1016.0
20260504184517 48 66 2.0 13.0 0.00 0.00 0.00 46 1016.0
20260504183016 48 340 4.0 15.0 0.00 0.00 0.00 47 1016.0
20260504181514 47 348 5.0 11.0 0.00 0.00 0.00 48 1016.0
20260504180012 47 307 4.0 12.0 0.00 0.00 0.00 49 1016.0
20260504174509 47 297 4.0 10.0 0.00 0.00 0.00 50 1015.9
20260504173008 47 13 4.0 11.0 0.00 0.00 0.00 52 1015.9
20260504171524 46 335 4.0 10.0 0.00 0.00 0.00 51 1015.7
20260504150104 41 79 4.0 12.0 0.00 0.00 0.00 63 1015.7